Hourly Data Report for October 09, 2018

MONTREAL INTL A
QUEBEC
Current Station Operator: NAVCAN

45°28'14.000" N
73°44'27.000" W
36.00 m
7025251
71627
YUL

Download Data

Hourly Data (October 2018)
Hourly Data Report for October 9, 2018
TIME
LST
Temp Definition
°C
Dew Point Definition
°C
Rel Hum Definition
%
Precip. Amount Definition
mm

Wind Dir Definition
10's deg

Wind Spd Definition
km/h
Visibility Definition
km
Stn Press Definition
kPa
Hmdx Definition


Wind Chill Definition


Weather Definition


00:00 8.4 7.9 97   35 5 9.7 101.78     Rain Showers, Fog
01:00 8.6 8.1 97   1 9 12.9 101.74     Cloudy
02:00 8.6 8.1 97   1 8 12.9 101.71     LegendNANA
03:00 8.6 8.2 97   33 5 6.4 101.67     Fog
04:00 8.7 8.4 98   32 5 3.2 101.64     Fog
05:00 8.7 8.4 98   36 1 0.4 101.61     Fog
06:00 9.1 8.8 98   20 4 4.8 101.57     Fog
07:00 10.0 9.7 98   36 3 8.1 101.60     Fog
08:00 11.6 10.5 93   36 2 9.7 101.58     Fog
09:00 14.2 12.6 90   27 3 11.3 101.58     LegendNANA
10:00 18.3 15.9 86   22 11 16.1 101.53     Mainly Clear
11:00 20.4 17.0 80   22 5 24.1 101.49 26   LegendNANA
12:00 22.4 18.2 77   23 9 24.1 101.40 29   LegendNANA
13:00 25.3 19.9 72   22 23 24.1 101.33 33   Mainly Clear
14:00 26.3 20.3 69   23 24 24.1 101.30 34   LegendNANA
15:00 26.7 19.8 65   23 31 24.1 101.27 34   LegendNANA
16:00 25.6 19.8 70   23 27 24.1 101.24 33   Mainly Clear
17:00 24.2 19.4 74   22 22 24.1 101.23 31   LegendNANA
18:00 23.7 19.4 77   21 21 24.1 101.22 31   LegendNANA
19:00 22.1 18.8 81   22 15 24.1 101.23 29   Mainly Clear
20:00 21.7 18.9 84   22 18 24.1 101.21 28   LegendNANA
21:00 21.3 18.9 86   22 15 24.1 101.20 28   LegendNANA
22:00 22.4 19.7 84   23 22 24.1 101.21 30   Mostly Cloudy
23:00 22.3 19.8 86   26 16 24.1 101.20 30   Rain Showers

Notes on Data Quality.

Legend

  • E = Estimated
  • M = Missing
  • NA = Not Available*
  • [empty] = Indicates an unobserved value
Date modified: